Location: Armstrong
(40.9123°N, 82.0110°W)
Time: 03:47:07
(UTC+00:00)

Timation 2 Rocket - Pass Details

Date: 29 October 2020
Orbit: 904 x 1077 km, 70.0° (Epoch: 26 November)

Event Time Altitude Azimuth Distance (km) Brightness Sun altitude
Rises 22:46:38 0° 336° (NNW) 3,757 7.2 -4.4°
Reaches altitude 10° 22:49:12 10° 338° (NNW) 2,827 6.5 -4.9°
Maximum altitude 22:55:52 73° 64° (ENE) 1,099 4.2 -6.1°
Drops below altitude 10° 23:02:41 10° 149° (SSE) 2,896 6.3 -7.3°
Sets 23:05:21 0° 151° (SSE) 3,855 6.9 -7.8°
